Theta_e
358 356 356 341 317 317 311 317 323 322 323 330 332 329 326 327 320 312 344 348 350 351 355 359 364 363 361 362 362 363 363 361 360 359 360 359 360 362 362 362 362 362 362 362 363 362 361 360 361
351 352 349 330 312 307 310 319 319 325 328 331 331 330 327 323 332 337 340 348 351 353 353 356 364 364 363 361 360 361 361 361 361 361 362 363 361 359 360 359 360 363 362 361 360 359 359 362 360
341 347 330 319 314 307 309 322 321 329 333 333 330 333 331 326 334 337 345 349 351 351 353 356 364 362 362 362 362 361 360 360 360 360 361 362 362 363 361 360 360 358 358 358 360 360 361 359 359
345 341 332 318 312 315 318 323 325 329 330 332 331 325 334 337 336 341 348 349 348 350 353 361 363 362 361 360 361 361 360 360 361 361 362 362 362 363 362 361 362 362 360 362 361 359 358 356 356
344 334 319 315 315 321 325 327 329 326 329 329 330 325 328 341 345 346 347 349 348 350 355 356 363 361 360 360 360 359 359 358 361 360 360 361 362 362 362 361 361 360 360 360 357 358 357 356 354
332 331 314 312 316 322 326 329 329 328 329 329 327 327 328 343 344 346 349 350 351 351 352 355 360 361 360 358 359 358 356 356 359 360 360 360 359 360 360 360 357 358 359 358 357 356 355 355 355
329 325 315 315 317 319 322 329 328 327 327 327 331 323 329 338 344 347 347 346 347 353 351 351 352 355 359 356 357 356 354 352 357 357 359 360 361 358 356 356 356 355 357 357 356 356 356 356 358
333 327 318 319 315 316 324 327 330 329 327 335 333 323 323 337 343 345 346 345 345 351 349 348 349 349 349 349 357 354 354 353 355 359 359 358 358 360 361 360 356 354 355 355 356 356 356 356 358
339 317 315 318 315 318 326 326 332 335 329 332 333 331 335 341 344 342 341 342 344 345 343 346 346 346 346 345 352 355 356 355 355 353 358 357 351 351 355 357 357 356 356 355 355 357 360 359 355
326 316 321 328 323 321 326 328 331 329 328 328 330 335 338 340 339 338 338 337 340 340 340 344 344 343 346 350 347 346 349 348 344 344 349 351 350 350 355 357 361 359 359 363 360 354 356 358 353
328 322 328 327 326 327 327 328 332 328 325 328 327 331 335 336 336 337 338 339 340 341 342 343 343 342 341 344 345 345 345 344 343 345 345 349 352 347 348 348 353 342 349 353 352 348 347 347 345
322 331 331 330 331 328 327 330 329 330 329 334 333 334 334 333 333 334 336 337 338 341 343 343 341 339 340 342 343 342 343 342 342 344 346 346 346 347 346 347 343 339 341 343 344 346 347 346 345
324 326 329 326 327 330 331 327 328 327 333 336 335 335 333 333 334 334 336 338 340 341 343 342 342 339 340 339 339 337 341 345 346 347 346 347 346 345 346 350 347 341 340 343 342 343 343 344 345
328 326 328 329 323 327 324 326 327 328 331 333 334 333 333 333 333 332 335 336 340 341 343 343 342 339 339 338 339 340 342 344 344 343 344 348 345 346 345 345 348 347 344 343 345 343 343 343 343
325 320 325 327 325 326 327 321 323 330 331 327 332 332 333 333 333 333 336 337 339 340 342 342 342 341 340 339 342 344 344 346 345 344 343 349 349 348 347 346 346 345 346 342 346 347 346 344 349
317 319 314 323 326 327 324 311 323 329 328 329 328 330 331 332 333 335 338 339 340 340 339 342 345 344 342 341 346 344 342 344 344 347 348 350 349 350 348 348 346 347 342 341 341 343 344 350 348
315 308 313 317 326 324 320 315 323 328 325 326 329 329 330 332 333 336 338 339 340 340 340 341 341 341 341 341 345 342 338 343 345 347 348 348 350 349 347 347 350 347 346 347 344 343 339 346 343
308 307 314 315 321 323 318 315 320 325 325 325 329 326 328 331 333 336 339 339 340 341 340 341 340 337 339 342 344 345 346 349 348 346 347 349 348 349 345 345 348 347 346 341 343 343 345 342 341
314 309 313 319 324 320 317 317 319 324 325 323 327 324 327 329 335 337 338 340 339 341 339 339 337 336 341 340 339 338 340 344 341 348 349 349 349 349 344 347 349 347 344 340 339 345 337 340 337
313 311 310 318 323 319 318 317 323 323 322 323 328 327 325 328 331 334 335 338 337 338 339 337 335 338 340 338 337 341 344 346 346 346 351 350 351 347 346 349 348 348 347 342 343 336 330 331 336
312 309 310 314 319 317 315 310 314 321 325 325 329 331 328 329 329 331 333 335 336 336 337 337 335 339 339 338 339 342 344 339 339 342 347 349 351 350 351 350 349 348 340 335 336 344 339 329 340
304 316 315 318 313 304 314 299 309 315 318 323 327 327 327 327 330 330 332 333 334 335 338 336 336 337 340 339 339 340 338 334 336 335 341 342 348 348 353 349 349 348 344 333 340 345 343 337 333
310 317 315 317 313 306 309 303 307 314 313 318 323 327 328 328 329 330 332 333 334 336 338 337 337 335 337 338 341 342 341 337 334 341 342 340 347 348 353 350 347 345 340 345 341 336 343 342 342
315 311 309 308 306 298 305 304 305 307 311 319 324 327 328 330 330 332 333 334 333 335 337 339 337 336 336 338 339 343 343 340 340 339 343 343 347 347 351 350 349 342 337 338 341 345 347 345 343
301 295 291 292 293 295 305 304 306 314 316 319 321 323 326 330 329 329 331 329 328 329 334 338 338 338 338 340 340 343 344 343 343 342 342 342 344 344 344 349 349 344 338 338 342 345 348 348 345
297 296 290 289 290 296 306 301 306 317 320 321 323 323 326 330 330 329 330 329 330 331 335 335 336 339 341 340 342 343 344 345 344 343 344 343 341 341 344 350 350 351 345 341 343 348 348 345 346
297 294 299 293 293 297 300 307 316 317 316 318 317 322 326 328 330 331 330 330 331 332 335 335 334 337 340 341 341 344 345 345 345 345 346 344 343 342 344 348 350 351 350 348 348 347 346 346 345
300 300 293 291 289 291 299 304 304 311 314 318 319 320 323 327 330 332 332 332 332 333 335 337 338 338 339 340 339 344 345 345 346 346 345 344 343 342 345 340 345 345 347 351 349 347 346 345 345
297 295 295 294 292 291 292 297 309 313 316 318 320 323 325 329 330 331 332 333 333 334 334 337 338 338 339 340 341 340 345 347 347 348 347 345 342 342 341 338 335 343 347 348 347 345 346 344 344
299 298 294 291 292 294 294 297 312 315 317 320 318 324 324 330 331 332 333 334 333 334 335 336 339 340 341 343 344 342 344 348 349 348 347 346 342 344 339 337 339 344 347 348 347 346 349 344 341
Wind_Speed
8 5 1 4 6 5 1 6 7 5 5 4 10 6 6 9 1 3 10 12 16 11 7 10 12 13 13 12 12 12 12 12 12 12 12 11 12 11 12 11 10 9 9 10 11 10 11 12 11
3 2 4 3 5 4 5 6 9 6 13 15 13 9 10 5 6 12 7 13 15 12 7 7 11 12 13 13 12 11 11 10 11 10 11 12 11 11 11 10 9 9 10 9 10 10 10 10 9
6 2 4 5 1 2 4 7 9 13 14 9 7 7 3 2 10 9 13 15 13 9 7 7 13 12 12 12 12 11 11 11 10 10 11 10 10 11 11 10 10 10 10 9 10 10 9 8 8
3 4 4 4 5 9 8 10 15 5 10 11 14 7 4 3 4 8 17 16 11 8 7 11 14 13 12 12 12 11 11 11 10 9 10 10 10 10 10 9 9 9 7 8 8 8 6 6 4
3 3 4 4 6 4 13 18 14 7 11 9 5 6 4 8 16 19 16 12 12 8 6 10 14 14 12 11 12 11 10 11 9 9 9 9 9 10 9 7 7 7 7 6 5 5 4 4 1
4 4 2 1 1 3 11 8 12 6 18 17 13 10 4 9 15 13 14 11 8 8 5 6 12 14 13 12 11 12 11 10 7 8 8 8 7 7 7 6 6 5 5 5 4 3 2 1 2
4 2 1 3 3 4 6 8 5 9 14 9 14 8 5 7 12 10 11 10 8 5 5 4 6 9 14 13 12 11 12 8 7 5 5 7 5 7 6 5 5 4 3 3 3 2 1 1 5
5 4 2 2 3 5 8 5 5 9 3 15 16 8 8 8 13 11 8 7 5 6 5 4 4 5 5 5 11 11 10 7 6 3 7 5 4 6 6 5 2 3 3 1 1 2 3 3 3
3 3 2 7 7 5 4 4 10 12 15 1 5 10 14 13 14 12 8 5 4 5 5 4 4 5 5 5 5 8 8 8 6 1 2 4 2 2 3 1 3 3 1 1 2 4 6 8 2
4 3 3 2 7 5 2 3 5 5 16 13 16 16 17 15 13 11 11 7 6 6 5 5 5 5 5 5 4 2 1 2 1 3 5 2 0 2 4 3 7 4 1 7 7 7 9 8 1
2 5 5 3 5 6 1 8 8 10 7 19 21 19 17 15 10 10 10 13 11 8 4 5 5 6 5 4 3 1 2 1 2 5 5 4 1 2 1 1 2 2 3 3 4 4 2 5 2
4 5 4 7 5 5 3 6 9 9 8 18 22 21 19 15 12 10 10 9 11 9 7 6 5 6 6 3 3 3 3 2 1 4 5 3 1 1 1 3 3 1 3 4 5 4 6 7 5
4 4 6 6 5 5 5 4 6 18 17 17 18 19 19 15 12 8 9 7 9 10 8 7 5 5 5 5 3 2 3 2 3 4 5 4 1 3 1 2 4 4 1 5 4 6 8 8 9
8 4 7 3 3 3 2 4 2 7 6 18 19 19 16 15 14 8 9 10 10 8 9 6 5 5 5 4 5 4 3 3 3 4 4 4 4 3 3 1 3 2 4 4 3 5 5 8 8
16 9 4 2 2 3 5 4 3 4 5 12 19 16 17 16 13 14 14 12 12 9 8 7 6 6 6 6 5 3 3 3 4 4 5 4 4 5 4 2 3 2 4 5 4 3 5 5 8
10 8 3 8 6 1 4 6 6 6 5 5 2 15 15 16 18 13 12 8 8 8 9 6 8 7 6 5 4 3 4 3 2 4 2 5 5 4 5 2 4 2 3 4 3 2 3 5 5
2 5 4 5 10 2 4 5 8 4 1 3 4 17 15 12 8 10 12 12 9 10 11 8 6 7 7 6 4 4 3 3 3 4 2 5 6 3 3 2 3 5 2 3 5 5 5 4 6
8 5 6 3 11 8 10 6 5 1 4 2 0 10 14 15 14 12 12 13 10 8 8 8 5 7 7 4 2 2 3 3 3 4 5 6 4 4 3 2 4 4 3 3 3 7 6 3 2
10 5 6 3 1 5 6 6 9 1 2 1 3 5 14 14 13 12 11 13 11 9 9 10 7 7 4 2 3 2 3 2 2 3 4 6 4 4 2 2 2 2 1 3 1 1 4 3 2
8 5 5 4 5 4 8 11 3 2 6 7 8 5 11 12 12 11 12 12 13 13 12 8 8 7 5 3 2 2 2 3 1 1 4 3 4 4 3 3 1 2 1 5 4 3 1 2 2
4 6 8 15 7 2 1 7 5 5 4 2 6 5 6 17 16 14 14 13 11 13 11 11 9 9 6 5 2 1 2 3 3 2 1 3 6 5 5 4 3 3 3 2 1 2 3 3 2
4 12 11 15 10 3 2 5 5 4 8 7 10 11 11 13 16 15 14 13 13 13 11 10 10 8 7 7 4 4 3 2 3 3 3 4 2 5 4 4 5 4 3 3 2 2 3 3 3
13 8 9 7 13 5 4 1 7 4 4 7 8 13 16 16 16 18 18 17 15 13 12 10 10 9 8 6 6 4 4 4 2 2 4 2 4 5 5 5 6 5 3 3 2 2 3 2 3
9 2 4 5 5 3 12 6 9 6 8 5 7 10 17 16 10 17 16 14 13 11 12 11 11 10 9 8 8 7 7 5 4 4 3 4 1 1 3 4 4 5 4 4 4 2 1 3 2
5 7 4 4 4 5 6 4 12 3 5 12 13 13 13 14 10 15 16 14 12 14 14 11 12 12 8 9 9 9 8 6 7 5 3 3 2 3 4 5 5 4 4 6 4 3 3 2 2
2 9 7 6 3 0 5 5 8 8 9 8 4 8 14 14 14 15 17 17 15 13 14 14 14 14 12 11 10 8 8 5 5 5 3 4 4 3 3 6 5 6 7 5 5 2 3 2 3
4 3 8 5 1 4 3 2 8 6 3 8 5 7 10 11 13 17 16 13 15 16 16 16 14 15 12 13 10 9 7 7 7 8 5 4 4 4 5 4 5 5 6 5 4 3 2 3 2
8 4 3 4 2 3 3 3 5 4 9 10 10 7 8 11 10 13 13 14 11 15 13 12 13 12 13 12 9 9 8 7 7 6 7 6 6 6 5 5 6 5 4 6 5 4 2 4 2
2 2 1 5 6 6 5 7 8 11 9 13 14 10 10 10 13 13 13 13 14 11 14 15 14 15 13 12 11 11 8 9 7 7 6 6 6 6 6 6 6 5 5 4 5 4 4 3 4
6 4 6 6 5 2 4 5 4 9 6 4 10 10 6 12 13 12 13 12 10 10 10 13 11 12 15 13 11 11 9 8 9 8 7 7 8 6 7 7 6 5 6 6 5 5 4 5 5
Wind_Direction
138 141 231 30 49 77 44 267 311 110 54 42 81 123 102 43 113 165 135 129 135 139 156 148 153 150 142 136 133 134 127 127 127 123 122 119 120 122 126 120 124 126 127 120 117 118 116 119 120
129 155 27 52 59 42 295 278 311 88 123 105 77 71 47 48 53 112 107 141 138 145 147 140 150 148 148 143 139 139 134 130 125 131 123 125 125 126 124 132 135 134 124 122 127 124 130 126 128
69 39 74 75 69 173 245 254 41 130 138 92 106 38 62 52 99 143 134 138 139 139 134 153 149 151 148 141 147 146 145 134 133 140 127 127 133 133 143 139 149 137 132 136 129 130 133 133 132
135 23 68 70 182 234 240 285 323 222 95 80 120 71 50 150 118 149 138 139 131 136 147 148 152 150 147 148 148 146 144 132 122 128 131 134 130 132 131 136 131 121 131 116 133 134 129 111 121
63 73 87 145 203 249 264 270 302 285 100 117 99 112 81 66 112 126 133 134 140 145 152 150 151 148 143 146 149 148 139 130 117 124 130 135 141 142 133 131 120 122 129 136 119 106 106 103 112
59 86 110 291 179 278 283 278 315 106 108 105 99 106 74 116 114 132 133 134 128 132 142 153 148 146 150 145 148 144 144 136 118 126 131 130 137 134 137 125 131 138 134 122 116 110 87 49 304
127 161 356 99 191 259 274 310 322 177 149 120 136 107 124 120 123 134 133 128 137 132 126 129 153 162 146 141 145 146 154 149 117 124 132 130 144 141 135 152 157 143 145 136 138 137 29 16 311
162 137 106 32 138 238 240 293 317 282 82 131 139 154 169 161 131 121 105 117 125 130 127 134 131 122 125 136 146 146 147 146 151 130 148 145 137 145 151 155 132 171 179 170 270 313 301 286 277
85 74 87 162 179 234 297 350 322 99 136 178 201 128 140 142 127 119 115 119 123 125 152 143 136 117 117 110 144 152 160 156 165 58 220 173 172 58 9 70 246 228 248 260 327 311 293 284 265
105 78 221 223 178 186 225 215 304 125 104 96 95 111 137 146 144 141 150 153 155 162 187 168 161 142 126 107 105 140 97 84 40 333 297 280 95 4 15 318 249 235 28 16 33 30 354 343 87
153 131 172 187 169 151 333 293 347 135 119 145 142 150 153 156 157 159 162 166 171 176 185 191 167 158 138 138 146 153 139 88 6 303 287 297 17 43 267 276 45 52 35 100 35 16 351 341 46
122 155 154 139 153 128 208 290 310 216 173 158 152 163 158 167 169 166 174 171 159 177 188 180 188 151 155 152 139 177 159 171 321 271 287 291 316 16 46 113 112 26 48 52 52 11 348 336 327
72 106 108 110 139 176 175 272 280 132 152 162 155 163 168 170 175 170 168 172 159 171 177 183 165 164 164 152 171 177 212 167 235 264 267 278 259 177 318 170 171 142 103 54 38 6 313 315 315
349 101 139 169 158 136 76 312 324 68 157 156 164 171 173 173 172 155 167 169 168 167 169 169 174 166 162 163 190 214 219 257 264 262 264 234 175 185 205 284 239 287 92 113 131 218 273 291 308
45 20 312 187 255 158 168 340 303 111 26 163 171 177 177 185 165 176 180 178 161 177 158 171 163 165 174 188 213 222 229 235 249 274 284 295 228 114 167 219 266 304 89 142 173 261 358 314 322
76 328 270 192 184 271 182 234 260 85 49 9 154 169 170 168 174 172 174 162 159 161 178 175 183 173 184 187 216 214 200 197 257 313 279 216 221 159 132 199 232 115 165 168 188 106 244 196 223
104 254 193 176 189 179 196 250 238 133 62 334 339 161 166 164 164 166 168 166 173 166 170 174 184 181 185 197 212 237 188 214 260 274 290 192 225 145 104 58 123 186 208 194 204 181 241 184 195
174 218 243 169 196 190 213 249 270 326 175 250 202 178 171 169 177 178 164 171 168 173 173 174 187 190 193 178 210 266 261 237 213 233 229 187 217 175 138 89 324 137 192 139 162 205 185 128 186
138 192 232 199 216 178 235 227 213 107 264 246 337 192 180 177 182 178 163 168 162 173 171 186 184 206 162 150 174 234 253 206 196 252 181 175 203 195 152 136 329 350 324 151 208 120 72 54 61
161 156 270 355 103 80 237 246 351 182 198 205 152 227 180 170 166 176 175 171 172 173 181 177 182 187 189 193 150 210 246 276 134 2 144 178 219 203 183 173 244 97 47 48 53 50 98 87 116
228 183 172 158 149 193 173 301 257 256 259 227 190 126 189 168 175 175 184 182 174 178 184 182 179 181 185 199 128 299 28 356 21 344 339 175 207 212 197 170 149 106 109 128 161 198 130 125 17
197 232 192 157 146 222 174 268 292 214 232 214 186 176 192 175 178 176 182 188 188 189 183 182 176 178 194 183 178 205 174 210 224 212 208 217 203 244 201 179 157 154 148 163 187 186 132 144 128
229 224 179 213 160 133 208 294 261 174 252 230 194 189 190 192 174 180 186 191 191 182 182 182 185 181 198 189 185 197 208 225 258 238 240 249 268 222 175 177 159 149 145 200 206 239 151 145 137
242 195 63 138 195 188 204 156 277 188 193 200 185 196 189 194 189 184 189 189 193 190 180 180 185 201 199 189 199 199 215 207 217 237 234 227 254 105 183 198 176 146 170 194 219 233 239 169 149
89 67 4 355 7 207 151 96 245 8 194 205 204 190 194 194 187 184 185 187 191 191 192 184 183 201 201 202 198 198 201 200 212 203 206 178 186 208 210 194 196 153 194 205 195 243 213 166 124
204 155 158 194 216 125 335 240 262 280 197 224 128 202 182 191 186 191 187 188 188 190 192 196 194 201 196 200 212 197 198 185 198 202 193 214 201 203 201 208 212 179 203 215 192 217 213 136 118
256 144 200 144 44 103 273 288 296 44 322 290 261 158 175 183 189 197 197 186 188 192 198 194 196 211 210 207 208 203 193 194 198 208 187 183 201 210 211 220 191 209 210 222 217 201 178 162 150
147 183 28 3 131 88 339 304 232 257 237 261 278 257 240 205 191 193 200 200 189 194 193 194 202 204 211 206 203 216 208 201 202 202 208 186 197 219 180 195 214 220 244 229 202 181 165 166 190
338 2 59 122 133 155 157 255 231 223 210 223 240 255 225 179 178 190 199 207 193 179 189 193 196 198 201 207 200 210 205 203 201 206 202 191 189 193 201 213 219 230 232 235 187 200 182 202 196
114 131 129 120 269 102 127 260 294 184 191 177 208 195 133 185 187 188 190 193 183 182 189 198 195 202 208 201 199 203 205 206 206 209 203 180 198 193 198 201 202 215 223 207 200 205 183 182 227